Weather observations for the past three days for
Findlay, Findlay Airport
Imperial (Metric)
Date Time (edt) Wind (mph) Vis. (mi.) Weather Sky Cond. Temperature (ºF) Relative Humidity Wind Chill (°F) Heat Index (°F) Pressure Precipitation (in)
Air Dwpt 6 hour altimeter (in) sea level (mb) 1 hr 3 hr 6 hr
Max. Min.
15 07:53 S 9 10.00 Partly Cloudy SCT110 77 70 77 73 79% 79 29.87 1010.5
15 06:53 SW 10 10.00 Fair CLR 75.9 71.1 85% 76 29.89 1011.3
15 05:53 SW 8 10.00 Partly Cloudy SCT023 SCT038 75 71.1 88% 75 29.9 1011.6
15 04:53 S 7 10.00 Partly Cloudy SCT120 75 71.1 88% 75 29.89 1011.2
15 03:53 S 8 10.00 A Few Clouds FEW120 73.9 70 88% 29.89 1011.2
15 02:53 S 7 10.00 Fair CLR 73 69.1 87% 29.91 1011.7
15 01:53 S 6 10.00 Fair CLR 73 68 75 70 84% 29.93 1012.5
15 00:53 S 6 10.00 Fair CLR 71.1 66.9 87% 29.95 1013.1
14 23:53 S 6 10.00 Fair CLR 71.1 66.9 87% 29.94 1012.8
14 22:53 S 7 10.00 Fair CLR 71.1 66.9 87% 29.93 1012.8
14 21:53 S 6 10.00 Fair CLR 72 66.9 84% 29.95 1013.3
14 20:53 S 6 10.00 Fair CLR 73 68 84% 29.96 1013.7
14 19:53 SW 3 10.00 Fair CLR 75 68 87.1 72 79% 76 29.97 1013.9 0.04
14 18:53 SW 6 10.00 Fair CLR 75.9 68 77% 77 29.97 1014.0
14 17:53 SW 7 10.00 Fair CLR 73.9 68 82% 29.97 1013.8
14 16:53 SW 10 10.00 Light Rain FEW100 73 66.9 81% 29.98 1014.3 0.03 0.04
14 15:53 W 15 G 26 10.00 Thunderstorm in Vicinity Light Rain FEW035 BKN110 73.9 68 82% 29.99 1014.7 0.01
14 14:53 S 13 10.00 Thunderstorm in Vicinity FEW035 SCT060 BKN100 84.9 73 68% 92 29.96 1013.4
14 13:53 SW 8 10.00 Mostly Cloudy SCT027 BKN037 BKN065 84.9 75 86 73 72% 93 29.98 1014.3 0.24
14 12:53 S 14 10.00 Fair CLR 82.9 73 72% 89 30.02 1015.6
14 11:53 S 9 10.00 Overcast OVC100 75 70 84% 75 30.05 1016.6
14 10:53 SE 7 10.00 Thunderstorm in Vicinity Light Rain FEW036 SCT070 BKN110 73.9 69.1 85% 30.06 1017.0 0.24 0.24
14 09:53 SW 7 10.00 Mostly Cloudy BKN100 BKN120 77 69.1 77% 79 30.07 1017.4
14 08:53 SW 5 10.00 A Few Clouds FEW035 FEW095 FEW120 75.9 70 82% 77 30.07 1017.1
14 07:53 SW 6 10.00 Fair CLR 73.9 68 73.9 70 82% 30.07 1017.2
14 06:53 SW 6 10.00 Fair CLR 73 66 79% 30.07 1017.1
14 05:53 S 8 10.00 Fair CLR 71.1 66 84% 30.08 1017.5
14 04:53 S 6 10.00 Fair CLR 70 64.9 84% 30.07 1017.2
14 03:53 S 7 10.00 Fair CLR 70 64.9 84% 30.07 1017.3
14 02:53 S 7 10.00 Fair CLR 70 64.9 84% 30.08 1017.5
14 01:53 S 6 10.00 Fair CLR 71.1 66 84.9 71.1 84% 30.09 1018.0
14 00:53 S 7 10.00 Fair CLR 73 66.9 81% 30.11 1018.6
13 23:53 S 6 10.00 Fair CLR 72 66.9 84% 30.12 1018.8
13 22:53 S 3 10.00 Fair CLR 75 68 79% 76 30.11 1018.5
13 21:53 S 3 10.00 Fair CLR 78.1 69.1 74% 80 30.1 1018.3
13 20:53 SW 6 10.00 Fair CLR 79 70 74% 82 30.12 1018.9
13 19:53 W 7 10.00 Fair CLR 84.9 69.1 90 84.9 59% 89 30.12 1019.0
13 18:53 W 10 10.00 Fair CLR 87.1 66.9 51% 90 30.11 1018.6
13 17:53 SW 8 10.00 Fair CLR 88 68 52% 92 30.12 1019.0
13 16:53 SW 8 10.00 A Few Clouds FEW048 89.1 68 50% 93 30.13 1019.3
13 15:53 W 8 10.00 A Few Clouds FEW048 89.1 68 50% 93 30.14 1019.6
13 14:53 S 6 10.00 A Few Clouds FEW043 87.1 68 53% 91 30.15 1019.9
13 13:53 SW 3 10.00 Mostly Cloudy BKN043 86 68 88 73.9 55% 89 30.17 1020.5
13 12:53 S 5 10.00 Fair CLR 86 69.1 57% 90 30.17 1020.6
13 11:53 Vrbl 3 10.00 Fair CLR 84.9 69.1 59% 89 30.18 1020.8
13 10:53 Vrbl 3 10.00 Fair CLR 82.9 66.9 59% 86 30.18 1020.9
13 09:53 E 5 10.00 Fair CLR 81 66.9 62% 83 30.19 1021.2
13 08:53 S 3 10.00 Fair CLR 77 68 74% 79 30.19 1021.2
13 07:53 E 3 10.00 Fair CLR 73.9 64.9 73.9 69.1 74% 30.18 1020.8
13 06:53 E 6 10.00 Fair CLR 71.1 64.9 81% 30.17 1020.4
13 05:53 N 3 10.00 Fair CLR 71.1 66 84% 30.16 1020.3
13 04:53 Calm 10.00 Fair CLR 71.1 66 84% 30.14 1019.7
13 03:53 NE 5 10.00 Fair CLR 72 66.9 84% 30.13 1019.4
13 02:53 NE 3 10.00 Fair CLR 73 68 84% 30.13 1019.3
13 01:53 Calm 10.00 Fair CLR 73.9 68 84 73 82% 30.14 1019.4
13 00:53 Calm 10.00 Fair CLR 75 68 79% 76 30.14 1019.5
12 23:53 E 5 10.00 Fair CLR 75 68 79% 76 30.14 1019.5
12 22:53 E 5 10.00 Fair CLR 77 66.9 71% 79 30.13 1019.2
12 21:53 SE 5 10.00 Fair CLR 78.1 68 71% 80 30.11 1018.7
12 20:53 E 7 10.00 Overcast SCT042 BKN050 OVC065 82 69.1 65% 85 30.11 1018.5
12 19:53 E 10 10.00 Partly Cloudy SCT041 84 69.1 88 84 61% 88 30.09 1018.1
12 18:53 NW 5 10.00 Fair CLR 87.1 68 53% 91 30.09 1017.8
12 17:53 Calm 10.00 Mostly Cloudy BKN041 BKN055 86 66.9 53% 89 30.08 1017.6
12 16:53 E 6 10.00 Partly Cloudy FEW043 SCT060 86 68 55% 89 30.09 1017.8
12 15:53 W 7 10.00 Mostly Cloudy BKN039 BKN046 BKN060 86 68 55% 89 30.09 1018.0
12 14:53 SW 5 10.00 A Few Clouds FEW100 84.9 68 57% 88 30.1 1018.4
12 13:53 SW 5 10.00 Mostly Cloudy FEW037 SCT048 BKN085 84 66.9 84.9 72 57% 87 30.12 1018.9
12 12:53 Vrbl 6 10.00 A Few Clouds FEW042 84 68 59% 87 30.13 1019.3
12 11:53 SW 6 10.00 Partly Cloudy FEW032 SCT120 82.9 66.9 59% 86 30.13 1019.5
12 10:53 Vrbl 3 10.00 Mostly Cloudy BKN045 BKN050 81 66.9 62% 83 30.13 1019.4
12 09:53 S 9 10.00 Mostly Cloudy BKN055 BKN080 77 64.9 66% 79 30.12 1019.1
12 08:53 SE 6 10.00 A Few Clouds FEW075 73 64 74% 30.12 1019.0
Date Time (edt) Wind (mph) Vis. (mi.) Weather Sky Cond. Air Dwpt Max. Min. Relative Humidity Wind Chill (°F) Heat Index (°F) altimeter (in) sea level (mb) 1 hr 3 hr 6 hr
6 hour
Temperature (ºF) Pressure Precipitation (in)